owner,sensor,date,latitude,longitude,vertical_datum,wind_speed,wind_to_direction,wind_speed_of_gust,qcFlag 
TABS,ioos:station:wmo:42045:1,2011-07-01T00:00:00Z,26.2168,-96.4998,4.0,8.285728695,105.6133317,10.52,'11111222,11111222,11111222' 
TABS,ioos:station:wmo:42045:1,2011-07-01T00:30:00Z,26.2168,-96.4998,4.0,8.583874417,110.3142372,10.36,'11111222,11111222,11111222' 
TABS,ioos:station:wmo:42045:1,2011-07-01T01:00:00Z,26.2168,-96.4998,4.0,8.191123244,112.0875409,10.08,'11111222,11111222,11111222' 
TABS,ioos:station:wmo:42045:1,2011-07-01T01:30:00Z,26.2168,-96.4998,4.0,7.985799897,110.2960996,10.14,'11111222,11111222,11111222' 
TABS,ioos:station:wmo:42045:1,2011-07-01T02:00:00Z,26.2168,-96.4998,4.0,7.745463188,118.4514135,9.38,'11111222,11111222,11111222' 
TABS,ioos:station:wmo:42045:1,2011-07-01T02:30:00Z,26.2168,-96.4998,4.0,7.604735367,115.2175258,9.06,'11111222,11111222,11111222' 
TABS,ioos:station:wmo:42045:1,2011-07-01T03:00:00Z,26.2168,-96.4998,4.0,6.951560976,112.7660554,8.88,'11111222,11111222,11111222' 
TABS,ioos:station:wmo:42045:1,2011-07-01T03:30:00Z,26.2168,-96.4998,4.0,7.331302749,118.8727776,8.81,'11111222,11111222,11111222' 
TABS,ioos:station:wmo:42045:1,2011-07-01T04:00:00Z,26.2168,-96.4998,4.0,7.925105678,122.6877881,9.78,'11111222,11111222,11111222' 
TABS,ioos:station:wmo:42045:1,2011-07-01T04:30:00Z,26.2168,-96.4998,4.0,7.774522493,119.5989773,9.21,'11111222,11111222,11111222' 
TABS,ioos:station:wmo:42045:1,2011-07-01T05:00:00Z,26.2168,-96.4998,4.0,7.643068755,116.1631066,9.4,'11111222,11111222,11111222' 
TABS,ioos:station:wmo:42045:1,2011-07-01T05:30:00Z,26.2168,-96.4998,4.0,7.875760281,113.1798523,9.76,'11111222,11111222,11111222' 
TABS,ioos:station:wmo:42045:1,2011-07-01T06:00:00Z,26.2168,-96.4998,4.0,7.757628504,110.2106429,9.71,'11111222,11111222,11111222' 
TABS,ioos:station:wmo:42045:1,2011-07-01T06:30:00Z,26.2168,-96.4998,4.0,7.299493133,114.3533731,9.46,'11111222,11111222,11111222' 
TABS,ioos:station:wmo:42045:1,2011-07-01T07:00:00Z,26.2168,-96.4998,4.0,8.144353872,117.2575807,9.53,'11111222,11111222,11111222' 
TABS,ioos:station:wmo:42045:1,2011-07-01T07:30:00Z,26.2168,-96.4998,4.0,7.764637789,115.6413668,9.42,'11111222,11111222,11111222' 
TABS,ioos:station:wmo:42045:1,2011-07-01T08:00:00Z,26.2168,-96.4998,4.0,7.164356217,113.7030114,8.39,'11111222,11111222,11111222' 
TABS,ioos:station:wmo:42045:1,2011-07-01T08:30:00Z,26.2168,-96.4998,4.0,7.545150761,120.0654746,8.97,'11111222,11111222,11111222' 
TABS,ioos:station:wmo:42045:1,2011-07-01T09:00:00Z,26.2168,-96.4998,4.0,8.616472596,118.1119572,10.18,'11111222,11111222,11111222' 
TABS,ioos:station:wmo:42045:1,2011-07-01T09:30:00Z,26.2168,-96.4998,4.0,8.222292868,119.5896558,9.65,'11111222,11111222,11111222' 
TABS,ioos:station:wmo:42045:1,2011-07-01T10:00:00Z,26.2168,-96.4998,4.0,7.98660128,119.8075202,9.56,'11111222,11111222,11111222' 
TABS,ioos:station:wmo:42045:1,2011-07-01T10:30:00Z,26.2168,-96.4998,4.0,7.944734105,117.9201221,9.46,'11111222,11111222,11111222' 
TABS,ioos:station:wmo:42045:1,2011-07-01T11:00:00Z,26.2168,-96.4998,4.0,7.887819724,119.1325647,9.31,'11111222,11111222,11111222' 
TABS,ioos:station:wmo:42045:1,2011-07-01T11:30:00Z,26.2168,-96.4998,4.0,7.708553691,112.3400749,9.18,'11111222,11111222,11111222' 
TABS,ioos:station:wmo:42045:1,2011-07-01T12:00:00Z,26.2168,-96.4998,4.0,7.748470817,115.0440588,9.32,'11111222,11111222,11111222' 
TABS,ioos:station:wmo:42045:1,2011-07-01T12:30:00Z,26.2168,-96.4998,4.0,8.328313155,120.444966,9.87,'11111222,11111222,11111222' 
TABS,ioos:station:wmo:42045:1,2011-07-01T13:00:00Z,26.2168,-96.4998,4.0,7.33597301,117.7879973,8.7,'11111222,11111222,11111222' 
TABS,ioos:station:wmo:42045:1,2011-07-01T13:30:00Z,26.2168,-96.4998,4.0,7.292221884,114.0346529,8.41,'11111222,11111222,11111222' 
TABS,ioos:station:wmo:42045:1,2011-07-01T14:00:00Z,26.2168,-96.4998,4.0,7.36652564,114.3735117,8.99,'11111222,11111222,11111222' 
TABS,ioos:station:wmo:42045:1,2011-07-01T14:30:00Z,26.2168,-96.4998,4.0,7.680208331,114.2961405,9.35,'11111222,11111222,11111222' 
TABS,ioos:station:wmo:42045:1,2011-07-01T15:00:00Z,26.2168,-96.4998,4.0,7.513354777,112.1274803,9.18,'11111222,11111222,11111222' 
TABS,ioos:station:wmo:42045:1,2011-07-01T15:30:00Z,26.2168,-96.4998,4.0,6.869293996,116.2669979,8.0,'11111222,11111222,11111222' 
TABS,ioos:station:wmo:42045:1,2011-07-01T16:00:00Z,26.2168,-96.4998,4.0,6.526944155,115.1127132,8.39,'11111222,11111222,11111222' 
TABS,ioos:station:wmo:42045:1,2011-07-01T16:30:00Z,26.2168,-96.4998,4.0,7.404120474,118.1229139,8.93,'11111222,11111222,11111222' 
TABS,ioos:station:wmo:42045:1,2011-07-01T17:00:00Z,26.2168,-96.4998,4.0,7.109331895,114.8711932,8.6,'11111222,11111222,11111222' 
TABS,ioos:station:wmo:42045:1,2011-07-01T17:30:00Z,26.2168,-96.4998,4.0,7.151146761,116.135432,8.73,'11111222,11111222,11111222' 
TABS,ioos:station:wmo:42045:1,2011-07-01T18:00:00Z,26.2168,-96.4998,4.0,7.334439311,116.9147693,8.67,'11111222,11111222,11111222' 
TABS,ioos:station:wmo:42045:1,2011-07-01T18:30:00Z,26.2168,-96.4998,4.0,7.758930339,120.4321979,9.38,'11111222,11111222,11111222' 
TABS,ioos:station:wmo:42045:1,2011-07-01T19:00:00Z,26.2168,-96.4998,4.0,7.360461942,119.2817795,8.66,'11111222,11111222,11111222' 
TABS,ioos:station:wmo:42045:1,2011-07-01T19:30:00Z,26.2168,-96.4998,4.0,7.513195059,118.5438653,8.95,'11111222,11111222,11111222' 
TABS,ioos:station:wmo:42045:1,2011-07-01T20:00:00Z,26.2168,-96.4998,4.0,7.30994528,122.4294568,9.02,'11111222,11111222,11111222' 
TABS,ioos:station:wmo:42045:1,2011-07-01T20:30:00Z,26.2168,-96.4998,4.0,7.53305383,123.2474109,8.77,'11111222,11111222,11111222' 
TABS,ioos:station:wmo:42045:1,2011-07-01T21:00:00Z,26.2168,-96.4998,4.0,7.614223532,125.4855311,9.06,'11111222,11111222,11111222' 
TABS,ioos:station:wmo:42045:1,2011-07-01T21:30:00Z,26.2168,-96.4998,4.0,6.379090844,123.4911213,7.95,'11111222,11111222,11111222' 
TABS,ioos:station:wmo:42045:1,2011-07-01T22:00:00Z,26.2168,-96.4998,4.0,6.349433046,119.431839,7.58,'11111222,11111222,11111222' 
TABS,ioos:station:wmo:42045:1,2011-07-01T22:30:00Z,26.2168,-96.4998,4.0,6.126279458,112.2533271,7.35,'11111222,11111222,11111222' 
TABS,ioos:station:wmo:42045:1,2011-07-01T23:00:00Z,26.2168,-96.4998,4.0,6.482669203,112.0151395,7.32,'11111222,11111222,11111222' 
TABS,ioos:station:wmo:42045:1,2011-07-01T23:30:00Z,26.2168,-96.4998,4.0,6.095088186,109.654199,7.31,'11111222,11111222,11111222' 
TABS,ioos:station:wmo:42045:1,2011-07-02T00:00:00Z,26.2168,-96.4998,4.0,6.662852242,111.482409,7.93,'11111222,11111222,11111222' 
TABS,ioos:station:wmo:42045:1,2011-07-02T00:30:00Z,26.2168,-96.4998,4.0,5.902346991,113.5686014,6.88,'11111222,11111222,11111222' 
TABS,ioos:station:wmo:42045:1,2011-07-02T01:00:00Z,26.2168,-96.4998,4.0,7.038465742,112.5576148,8.45,'11111222,11111222,11111222' 
TABS,ioos:station:wmo:42045:1,2011-07-02T01:30:00Z,26.2168,-96.4998,4.0,6.602491954,110.1095191,7.87,'11111222,11111222,11111222' 
TABS,ioos:station:wmo:42045:1,2011-07-02T02:00:00Z,26.2168,-96.4998,4.0,5.561735341,105.8608762,6.95,'11111222,11111222,11111222' 
TABS,ioos:station:wmo:42045:1,2011-07-02T02:30:00Z,26.2168,-96.4998,4.0,5.525296372,102.225515,6.91,'11111222,11111222,11111222' 
TABS,ioos:station:wmo:42045:1,2011-07-02T03:00:00Z,26.2168,-96.4998,4.0,5.936345677,102.7490427,7.18,'11111222,11111222,11111222' 
TABS,ioos:station:wmo:42045:1,2011-07-02T03:30:00Z,26.2168,-96.4998,4.0,6.040504946,102.8172698,7.28,'11111222,11111222,11111222' 
TABS,ioos:station:wmo:42045:1,2011-07-02T04:00:00Z,26.2168,-96.4998,4.0,5.998541489,103.2026253,7.68,'11111222,11111222,11111222' 
TABS,ioos:station:wmo:42045:1,2011-07-02T04:30:00Z,26.2168,-96.4998,4.0,5.632024503,108.531838,7.0,'11111222,11111222,11111222' 
TABS,ioos:station:wmo:42045:1,2011-07-02T05:00:00Z,26.2168,-96.4998,4.0,5.838433009,101.0601292,7.12,'11111222,11111222,11111222' 
TABS,ioos:station:wmo:42045:1,2011-07-02T05:30:00Z,26.2168,-96.4998,4.0,5.958061765,102.8003946,7.16,'11111222,11111222,11111222' 
TABS,ioos:station:wmo:42045:1,2011-07-02T06:00:00Z,26.2168,-96.4998,4.0,6.638712225,115.1371756,7.82,'11111222,11111222,11111222' 
TABS,ioos:station:wmo:42045:1,2011-07-02T06:30:00Z,26.2168,-96.4998,4.0,6.9149765,117.5659437,8.73,'11111222,11111222,11111222' 
TABS,ioos:station:wmo:42045:1,2011-07-02T07:00:00Z,26.2168,-96.4998,4.0,6.726165327,116.2987433,8.13,'11111222,11111222,11111222' 
TABS,ioos:station:wmo:42045:1,2011-07-02T07:30:00Z,26.2168,-96.4998,4.0,6.776761764,124.7222295,8.48,'11111222,11111222,11111222' 
TABS,ioos:station:wmo:42045:1,2011-07-02T08:00:00Z,26.2168,-96.4998,4.0,5.464430437,124.5628647,6.7,'11111222,11111222,11111222' 
TABS,ioos:station:wmo:42045:1,2011-07-02T08:30:00Z,26.2168,-96.4998,4.0,5.760642325,123.386969,6.99,'11111222,11111222,11111222' 
TABS,ioos:station:wmo:42045:1,2011-07-02T09:00:00Z,26.2168,-96.4998,4.0,5.227944147,116.7124472,6.19,'11111222,11111222,11111222' 
TABS,ioos:station:wmo:42045:1,2011-07-02T09:30:00Z,26.2168,-96.4998,4.0,6.047346526,109.5139875,7.73,'11111222,11111222,11111222' 
TABS,ioos:station:wmo:42045:1,2011-07-02T10:00:00Z,26.2168,-96.4998,4.0,6.824441369,118.6309151,8.71,'11111222,11111222,11111222' 
TABS,ioos:station:wmo:42045:1,2011-07-02T10:30:00Z,26.2168,-96.4998,4.0,6.71107294,125.8456802,8.02,'11111222,11111222,11111222' 
TABS,ioos:station:wmo:42045:1,2011-07-02T11:00:00Z,26.2168,-96.4998,4.0,5.939436,124.9212337,6.95,'11111222,11111222,11111222' 
TABS,ioos:station:wmo:42045:1,2011-07-02T11:30:00Z,26.2168,-96.4998,4.0,6.490069337,131.3772622,7.55,'11111222,11111222,11111222' 
TABS,ioos:station:wmo:42045:1,2011-07-02T12:00:00Z,26.2168,-96.4998,4.0,6.888018583,126.7371417,8.11,'11111222,11111222,11111222' 
TABS,ioos:station:wmo:42045:1,2011-07-02T12:30:00Z,26.2168,-96.4998,4.0,6.504682928,130.4487562,7.6,'11111222,11111222,11111222' 
TABS,ioos:station:wmo:42045:1,2011-07-02T13:00:00Z,26.2168,-96.4998,4.0,6.192616571,125.2045925,7.25,'11111222,11111222,11111222' 
TABS,ioos:station:wmo:42045:1,2011-07-02T13:30:00Z,26.2168,-96.4998,4.0,5.682226676,120.2204967,6.73,'11111222,11111222,11111222' 
TABS,ioos:station:wmo:42045:1,2011-07-02T14:00:00Z,26.2168,-96.4998,4.0,5.379005484,127.97808,6.24,'11111222,11111222,11111222' 
TABS,ioos:station:wmo:42045:1,2011-07-02T14:30:00Z,26.2168,-96.4998,4.0,5.488761245,119.22732,6.47,'11111222,11111222,11111222' 
TABS,ioos:station:wmo:42045:1,2011-07-02T15:00:00Z,26.2168,-96.4998,4.0,5.538637016,127.7392221,6.55,'11111222,11111222,11111222' 
TABS,ioos:station:wmo:42045:1,2011-07-02T15:30:00Z,26.2168,-96.4998,4.0,5.789801378,120.8622764,7.48,'11111222,11111222,11111222' 
TABS,ioos:station:wmo:42045:1,2011-07-02T16:00:00Z,26.2168,-96.4998,4.0,5.57976702,114.68227,6.61,'11111222,11111222,11111222' 
TABS,ioos:station:wmo:42045:1,2011-07-02T16:30:00Z,26.2168,-96.4998,4.0,5.257118983,112.1255945,6.07,'11111222,11111222,11111222' 
TABS,ioos:station:wmo:42045:1,2011-07-02T17:00:00Z,26.2168,-96.4998,4.0,5.147212838,113.2281897,5.76,'11111222,11111222,11111222' 
TABS,ioos:station:wmo:42045:1,2011-07-02T17:30:00Z,26.2168,-96.4998,4.0,5.660185509,110.2602273,6.2,'11111222,11111222,11111222' 
TABS,ioos:station:wmo:42045:1,2011-07-02T18:00:00Z,26.2168,-96.4998,4.0,5.60357029,108.3059913,6.4,'11111222,11111222,11111222' 
TABS,ioos:station:wmo:42045:1,2011-07-02T18:30:00Z,26.2168,-96.4998,4.0,5.728917873,113.3434107,6.78,'11111222,11111222,11111222' 
TABS,ioos:station:wmo:42045:1,2011-07-02T19:00:00Z,26.2168,-96.4998,4.0,5.823650058,106.9729092,6.83,'11111222,11111222,11111222' 
TABS,ioos:station:wmo:42045:1,2011-07-02T19:30:00Z,26.2168,-96.4998,4.0,5.868398419,105.3154456,6.95,'11111222,11111222,11111222' 
TABS,ioos:station:wmo:42045:1,2011-07-02T20:00:00Z,26.2168,-96.4998,4.0,5.917871239,104.0835952,6.7,'11111222,11111222,11111222' 
TABS,ioos:station:wmo:42045:1,2011-07-02T20:30:00Z,26.2168,-96.4998,4.0,5.890636638,106.774157,6.73,'11111222,11111222,11111222' 
TABS,ioos:station:wmo:42045:1,2011-07-02T21:00:00Z,26.2168,-96.4998,4.0,5.767096323,102.5184234,6.92,'11111222,11111222,11111222' 
TABS,ioos:station:wmo:42045:1,2011-07-02T21:30:00Z,26.2168,-96.4998,4.0,5.676090204,100.5580431,6.56,'11111222,11111222,11111222' 
TABS,ioos:station:wmo:42045:1,2011-07-02T22:00:00Z,26.2168,-96.4998,4.0,5.778970497,105.4555031,7.06,'11111222,11111222,11111222' 
TABS,ioos:station:wmo:42045:1,2011-07-02T22:30:00Z,26.2168,-96.4998,4.0,6.221912889,104.9970534,7.08,'11111222,11111222,11111222' 
TABS,ioos:station:wmo:42045:1,2011-07-02T23:00:00Z,26.2168,-96.4998,4.0,6.005738922,111.1817209,7.0,'11111222,11111222,11111222' 
TABS,ioos:station:wmo:42045:1,2011-07-02T23:30:00Z,26.2168,-96.4998,4.0,5.694216364,117.7354647,6.57,'11111222,11111222,11111222' 
TABS,ioos:station:wmo:42045:1,2011-07-03T00:00:00Z,26.2168,-96.4998,4.0,5.219013317,116.7617953,6.31,'11111222,11111222,11111222' 
TABS,ioos:station:wmo:42045:1,2011-07-03T00:30:00Z,26.2168,-96.4998,4.0,4.929523304,113.8094364,6.1,'11111222,11111222,11111222' 
TABS,ioos:station:wmo:42045:1,2011-07-03T01:00:00Z,26.2168,-96.4998,4.0,5.25163784,112.2677521,6.41,'11111222,11111222,11111222' 
TABS,ioos:station:wmo:42045:1,2011-07-03T01:30:00Z,26.2168,-96.4998,4.0,4.722171111,109.5480961,5.71,'11111222,11111222,11111222' 
TABS,ioos:station:wmo:42045:1,2011-07-03T02:00:00Z,26.2168,-96.4998,4.0,4.688027304,115.2535253,5.67,'11111222,11111222,11111222' 
TABS,ioos:station:wmo:42045:1,2011-07-03T02:30:00Z,26.2168,-96.4998,4.0,4.540594675,115.1544725,5.29,'11111222,11111222,11111222' 
TABS,ioos:station:wmo:42045:1,2011-07-03T03:00:00Z,26.2168,-96.4998,4.0,4.560285079,109.0710359,5.55,'11111222,11111222,11111222' 
TABS,ioos:station:wmo:42045:1,2011-07-03T03:30:00Z,26.2168,-96.4998,4.0,5.59803537,109.4063463,6.49,'11111222,11111222,11111222' 
TABS,ioos:station:wmo:42045:1,2011-07-03T04:00:00Z,26.2168,-96.4998,4.0,4.866754565,108.3236394,5.71,'11111222,11111222,11111222' 
TABS,ioos:station:wmo:42045:1,2011-07-03T04:30:00Z,26.2168,-96.4998,4.0,5.147212838,113.2281897,6.12,'11111222,11111222,11111222' 
TABS,ioos:station:wmo:42045:1,2011-07-03T05:00:00Z,26.2168,-96.4998,4.0,4.891952575,119.9195596,5.81,'11111222,11111222,11111222' 
TABS,ioos:station:wmo:42045:1,2011-07-03T05:30:00Z,26.2168,-96.4998,4.0,5.018256669,122.5503483,5.8,'11111222,11111222,11111222' 
TABS,ioos:station:wmo:42045:1,2011-07-03T06:00:00Z,26.2168,-96.4998,4.0,5.174263233,129.196243,6.12,'11111222,11111222,11111222' 
TABS,ioos:station:wmo:42045:1,2011-07-03T06:30:00Z,26.2168,-96.4998,4.0,4.858188963,131.8297447,5.74,'11111222,11111222,11111222' 
TABS,ioos:station:wmo:42045:1,2011-07-03T07:00:00Z,26.2168,-96.4998,4.0,4.419468294,135.2753327,5.42,'11111222,11111222,11111222' 
TABS,ioos:station:wmo:42045:1,2011-07-03T07:30:00Z,26.2168,-96.4998,4.0,4.502199462,137.7009387,5.5,'11111222,11111222,11111222' 
TABS,ioos:station:wmo:42045:1,2011-07-03T08:00:00Z,26.2168,-96.4998,4.0,4.321342384,146.898603,5.44,'11111222,11111222,11111222' 
TABS,ioos:station:wmo:42045:1,2011-07-03T08:30:00Z,26.2168,-96.4998,4.0,4.131742974,149.7737895,5.1,'11111222,11111222,11111222' 
TABS,ioos:station:wmo:42045:1,2011-07-03T09:00:00Z,26.2168,-96.4998,4.0,3.868707795,150.5860528,4.61,'11111222,11111222,11111222' 
TABS,ioos:station:wmo:42045:1,2011-07-03T09:30:00Z,26.2168,-96.4998,4.0,4.118992595,153.9328909,4.89,'11111222,11111222,11111222' 
TABS,ioos:station:wmo:42045:1,2011-07-03T10:00:00Z,26.2168,-96.4998,4.0,3.679266231,166.0017689,4.52,'11111222,11111222,11111222' 
TABS,ioos:station:wmo:42045:1,2011-07-03T10:30:00Z,26.2168,-96.4998,4.0,3.755862085,159.5870504,4.48,'11111222,11111222,11111222' 
TABS,ioos:station:wmo:42045:1,2011-07-03T11:00:00Z,26.2168,-96.4998,4.0,3.16218279,154.3265952,3.76,'11111222,11111222,11111222' 
TABS,ioos:station:wmo:42045:1,2011-07-03T11:30:00Z,26.2168,-96.4998,4.0,2.821719334,147.8872846,3.58,'11111222,11111222,11111222' 
TABS,ioos:station:wmo:42045:1,2011-07-03T12:00:00Z,26.2168,-96.4998,4.0,3.000166662,140.9527612,3.5,'11111222,11111222,11111222' 
TABS,ioos:station:wmo:42045:1,2011-07-03T12:30:00Z,26.2168,-96.4998,4.0,2.140584032,178.6617707,2.96,'11111222,11111222,11111222' 
TABS,ioos:station:wmo:42045:1,2011-07-03T13:00:00Z,26.2168,-96.4998,4.0,2.030221663,198.0781386,2.55,'11111222,11111222,11111222' 
TABS,ioos:station:wmo:42045:1,2011-07-03T13:30:00Z,26.2168,-96.4998,4.0,1.337647188,208.0978277,2.04,'11111222,11111222,11111222' 
TABS,ioos:station:wmo:42045:1,2011-07-03T14:00:00Z,26.2168,-96.4998,4.0,0.89738509,165.8091471,1.41,'11111222,11111222,11111222' 
TABS,ioos:station:wmo:42045:1,2011-07-03T14:30:00Z,26.2168,-96.4998,4.0,0.559464029,114.2748053,1.19,'11111222,11111222,11111222' 
TABS,ioos:station:wmo:42045:1,2011-07-03T15:00:00Z,26.2168,-96.4998,4.0,1.405773808,98.59162626,1.94,'11111222,11111222,11111222' 
TABS,ioos:station:wmo:42045:1,2011-07-03T15:30:00Z,26.2168,-96.4998,4.0,0.834865259,124.2614437,1.61,'11111222,11111222,11111222' 
TABS,ioos:station:wmo:42045:1,2011-07-03T16:00:00Z,26.2168,-96.4998,4.0,1.244226667,111.20319,1.74,'11111222,11111222,11111222' 
TABS,ioos:station:wmo:42045:1,2011-07-03T16:30:00Z,26.2168,-96.4998,4.0,1.666763331,84.83628434,2.43,'11111222,11111222,11111222' 
TABS,ioos:station:wmo:42045:1,2011-07-03T17:00:00Z,26.2168,-96.4998,4.0,1.271416533,87.29470942,2.2,'11111222,11111222,11111222' 
TABS,ioos:station:wmo:42045:1,2011-07-03T17:30:00Z,26.2168,-96.4998,4.0,2.048340792,111.1784606,2.57,'11111222,11111222,11111222' 
TABS,ioos:station:wmo:42045:1,2011-07-03T18:00:00Z,26.2168,-96.4998,4.0,1.836355085,99.71919039,2.51,'11111222,11111222,11111222' 
TABS,ioos:station:wmo:42045:1,2011-07-03T18:30:00Z,26.2168,-96.4998,4.0,2.604995202,104.6767797,3.97,'11111222,11111222,11111222' 
TABS,ioos:station:wmo:42045:1,2011-07-03T19:00:00Z,26.2168,-96.4998,4.0,2.936409372,100.2005301,4.16,'11111222,11111222,11111222' 
TABS,ioos:station:wmo:42045:1,2011-07-03T19:30:00Z,26.2168,-96.4998,4.0,2.761322147,109.6821141,3.58,'11111222,11111222,11111222' 
TABS,ioos:station:wmo:42045:1,2011-07-03T20:00:00Z,26.2168,-96.4998,4.0,3.168359197,110.8950659,4.11,'11111222,11111222,11111222' 
TABS,ioos:station:wmo:42045:1,2011-07-03T20:30:00Z,26.2168,-96.4998,4.0,4.094691686,102.9845194,5.34,'11111222,11111222,11111222' 
TABS,ioos:station:wmo:42045:1,2011-07-03T21:00:00Z,26.2168,-96.4998,4.0,4.41909493,104.4139849,5.01,'11111222,11111222,11111222' 
TABS,ioos:station:wmo:42045:1,2011-07-03T21:30:00Z,26.2168,-96.4998,4.0,3.741136191,107.9025845,4.28,'11111222,11111222,11111222' 
TABS,ioos:station:wmo:42045:1,2011-07-03T22:00:00Z,26.2168,-96.4998,4.0,3.915635325,109.545927,4.82,'11111222,11111222,11111222' 
TABS,ioos:station:wmo:42045:1,2011-07-03T22:30:00Z,26.2168,-96.4998,4.0,4.249058719,115.6608171,5.21,'11111222,11111222,11111222' 
TABS,ioos:station:wmo:42045:1,2011-07-03T23:00:00Z,26.2168,-96.4998,4.0,3.996861269,123.0542593,5.11,'11111222,11111222,11111222' 
TABS,ioos:station:wmo:42045:1,2011-07-03T23:30:00Z,26.2168,-96.4998,4.0,5.60806562,116.4740294,6.47,'11111222,11111222,11111222' 
TABS,ioos:station:wmo:42045:1,2011-07-04T00:00:00Z,26.2168,-96.4998,4.0,4.785112329,122.6276558,5.69,'11111222,11111222,11111222' 
TABS,ioos:station:wmo:42045:1,2011-07-04T00:30:00Z,26.2168,-96.4998,4.0,4.527394394,122.4618311,5.42,'11111222,11111222,11111222' 
TABS,ioos:station:wmo:42045:1,2011-07-04T01:00:00Z,26.2168,-96.4998,4.0,4.167733197,112.8740326,5.06,'11111222,11111222,11111222' 
TABS,ioos:station:wmo:42045:1,2011-07-04T01:30:00Z,26.2168,-96.4998,4.0,4.709670901,121.631759,5.57,'11111222,11111222,11111222' 
TABS,ioos:station:wmo:42045:1,2011-07-04T02:00:00Z,26.2168,-96.4998,4.0,4.524179484,120.7034746,5.43,'11111222,11111222,11111222' 
TABS,ioos:station:wmo:42045:1,2011-07-04T02:30:00Z,26.2168,-96.4998,4.0,4.058866837,130.2035279,4.88,'11111222,11111222,11111222' 
TABS,ioos:station:wmo:42045:1,2011-07-04T03:00:00Z,26.2168,-96.4998,4.0,4.201868632,123.8416849,5.18,'11111222,11111222,11111222' 
TABS,ioos:station:wmo:42045:1,2011-07-04T03:30:00Z,26.2168,-96.4998,4.0,3.879639158,121.7239497,4.73,'11111222,11111222,11111222' 
TABS,ioos:station:wmo:42045:1,2011-07-04T04:00:00Z,26.2168,-96.4998,4.0,3.784032241,124.9923593,4.95,'11111222,11111222,11111222' 
TABS,ioos:station:wmo:42045:1,2011-07-04T04:30:00Z,26.2168,-96.4998,4.0,4.050345664,122.3955916,5.55,'11111222,11111222,11111222' 
TABS,ioos:station:wmo:42045:1,2011-07-04T05:00:00Z,26.2168,-96.4998,4.0,3.655475345,146.2667501,4.68,'11111222,11111222,11111222' 
TABS,ioos:station:wmo:42045:1,2011-07-04T05:30:00Z,26.2168,-96.4998,4.0,4.018880441,145.9543527,4.74,'11111222,11111222,11111222' 
TABS,ioos:station:wmo:42045:1,2011-07-04T06:00:00Z,26.2168,-96.4998,4.0,3.933001398,151.6107211,5.03,'11111222,11111222,11111222' 
TABS,ioos:station:wmo:42045:1,2011-07-04T06:30:00Z,26.2168,-96.4998,4.0,4.02889563,155.9800198,4.91,'11111222,11111222,11111222' 
TABS,ioos:station:wmo:42045:1,2011-07-04T07:00:00Z,26.2168,-96.4998,4.0,3.987743723,148.2233524,4.75,'11111222,11111222,11111222' 
TABS,ioos:station:wmo:42045:1,2011-07-04T07:30:00Z,26.2168,-96.4998,4.0,3.863948757,148.6550696,4.72,'11111222,11111222,11111222' 
TABS,ioos:station:wmo:42045:1,2011-07-04T08:00:00Z,26.2168,-96.4998,4.0,3.889087297,151.2604824,4.97,'11111222,11111222,11111222' 
TABS,ioos:station:wmo:42045:1,2011-07-04T08:30:00Z,26.2168,-96.4998,4.0,4.212944339,165.5681813,4.95,'11111222,11111222,11111222' 
TABS,ioos:station:wmo:42045:1,2011-07-04T09:00:00Z,26.2168,-96.4998,4.0,3.634019813,155.6215549,4.47,'11111222,11111222,11111222' 
TABS,ioos:station:wmo:42045:1,2011-07-04T09:30:00Z,26.2168,-96.4998,4.0,3.516432852,163.9877085,4.55,'11111222,11111222,11111222' 
TABS,ioos:station:wmo:42045:1,2011-07-04T10:00:00Z,26.2168,-96.4998,4.0,2.490702712,168.4196184,3.25,'11111222,11111222,11111222' 
TABS,ioos:station:wmo:42045:1,2011-07-04T10:30:00Z,26.2168,-96.4998,4.0,4.013900846,155.4145507,4.77,'11111222,11111222,11111222' 
TABS,ioos:station:wmo:42045:1,2011-07-04T11:00:00Z,26.2168,-96.4998,4.0,3.473326935,151.0738523,4.46,'11111222,11111222,11111222' 
TABS,ioos:station:wmo:42045:1,2011-07-04T11:30:00Z,26.2168,-96.4998,4.0,3.066626811,144.2888615,3.8,'11111222,11111222,11111222' 
TABS,ioos:station:wmo:42045:1,2011-07-04T12:00:00Z,26.2168,-96.4998,4.0,2.494674327,144.4626158,3.23,'11111222,11111222,11111222' 
TABS,ioos:station:wmo:42045:1,2011-07-04T12:30:00Z,26.2168,-96.4998,4.0,2.732508005,153.7165398,3.5,'11111222,11111222,11111222' 
TABS,ioos:station:wmo:42045:1,2011-07-04T13:00:00Z,26.2168,-96.4998,4.0,2.910017182,157.5772899,3.67,'11111222,11111222,11111222' 
TABS,ioos:station:wmo:42045:1,2011-07-04T13:30:00Z,26.2168,-96.4998,4.0,2.343608329,146.3102217,3.37,'11111222,11111222,11111222' 
TABS,ioos:station:wmo:42045:1,2011-07-04T14:00:00Z,26.2168,-96.4998,4.0,1.963670033,123.3667089,2.63,'11111222,11111222,11111222' 
TABS,ioos:station:wmo:42045:1,2011-07-04T14:30:00Z,26.2168,-96.4998,4.0,3.288236609,134.3842572,4.53,'11111222,11111222,11111222' 
TABS,ioos:station:wmo:42045:1,2011-07-04T15:00:00Z,26.2168,-96.4998,4.0,2.150581317,144.4626158,3.11,'11111222,11111222,11111222' 
TABS,ioos:station:wmo:42045:1,2011-07-04T15:30:00Z,26.2168,-96.4998,4.0,2.687936011,133.4928835,3.45,'11111222,11111222,11111222' 
TABS,ioos:station:wmo:42045:1,2011-07-04T16:00:00Z,26.2168,-96.4998,4.0,3.078765987,123.0710214,3.72,'11111222,11111222,11111222' 
TABS,ioos:station:wmo:42045:1,2011-07-04T16:30:00Z,26.2168,-96.4998,4.0,2.954623495,112.4859815,3.8,'11111222,11111222,11111222' 
TABS,ioos:station:wmo:42045:1,2011-07-04T17:00:00Z,26.2168,-96.4998,4.0,2.714866479,111.8409693,3.5,'11111222,11111222,11111222' 
TABS,ioos:station:wmo:42045:1,2011-07-04T17:30:00Z,26.2168,-96.4998,4.0,3.398411394,106.4089517,4.46,'11111222,11111222,11111222' 
TABS,ioos:station:wmo:42045:1,2011-07-04T18:00:00Z,26.2168,-96.4998,4.0,3.439840113,110.595408,4.3,'11111222,11111222,11111222' 
TABS,ioos:station:wmo:42045:1,2011-07-04T18:30:00Z,26.2168,-96.4998,4.0,2.885914067,118.3414501,3.62,'11111222,11111222,11111222' 